Terminal Aerodrome Forecast
Issued by NWS

Home | Current Version | Previous Version | Text Only | Print | Product List | Glossary Off
Versions: 1 2 3 4 5 6 7 8 9 10 11 12

729
FTUS42 KMHX 182337
TAFISO
TAF
KISO 182337Z 1900/1924 23009KT P6SM SKC
     FM190200 22006KT P6SM OVC080
     FM191000 27005KT P6SM SKC
      AMD LTD TO CLD VIS AND WIND=

USA.gov is the U.S. government's official web portal to all federal, state and local government web resources and services.